| time (UTC) | temp F | wind direction | speed MPH | gust MPH | rain 1hr in | rain 24hr in | rain mn in | humidity % | barometer mb |
| 20260502163039 | 88 | 203 | 5.0 | 16.0 | 0.00 | 0.00 | 0.00 | 63 | 1010.7 |
| 20260502161543 | 89 | 137 | 6.0 | 16.0 | 0.00 | 0.00 | 0.00 | 62 | 1010.9 |
| 20260502151604 | 85 | 132 | 8.0 | 17.0 | 0.00 | 0.00 | 0.00 | 71 | 1010.8 |
| 20260502123110 | 75 | 239 | 1.0 | 5.0 | 0.00 | 0.00 | 0.00 | 85 | 1010.8 |
| 20260502121534 | 73 | 111 | 1.0 | 6.0 | 0.00 | 0.00 | 0.00 | 89 | 1010.7 |
| 20260502114612 | 70 | 176 | 0.0 | 5.0 | 0.00 | 0.00 | 0.00 | 94 | 1010.7 |
| 20260502113122 | 69 | 174 | 0.0 | 4.0 | 0.00 | 0.00 | 0.00 | 95 | 1010.8 |
| 20260502111525 | 68 | 208 | 1.0 | 3.0 | 0.00 | 0.00 | 0.00 | 95 | 1011.0 |
| 20260502110048 | 68 | 208 | 0.0 | 3.0 | 0.00 | 0.00 | 0.00 | 95 | 1010.9 |
| 20260502104600 | 68 | 231 | 0.0 | 5.0 | 0.00 | 0.00 | 0.00 | 95 | 1010.8 |
| 20260502103016 | 68 | 218 | 0.0 | 5.0 | 0.00 | 0.00 | 0.00 | 94 | 1010.8 |
| 20260502101608 | 69 | 190 | 0.0 | 5.0 | 0.00 | 0.00 | 0.00 | 94 | 1010.7 |
| 20260502100105 | 69 | 209 | 0.0 | 3.0 | 0.00 | 0.00 | 0.00 | 94 | 1010.8 |
| 20260502090107 | 70 | 243 | 2.0 | 6.0 | 0.00 | 0.00 | 0.00 | 91 | 1010.6 |
| 20260502070104 | 73 | 237 | 0.0 | 3.0 | 0.00 | 0.00 | 0.00 | 88 | 1010.6 |
| 20260502064503 | 73 | 231 | 0.0 | 3.0 | 0.00 | 0.00 | 0.00 | 88 | 1010.5 |
| 20260502063037 | 73 | 245 | 0.0 | 5.0 | 0.00 | 0.00 | 0.00 | 88 | 1010.5 |
| 20260502061557 | 74 | 234 | 1.0 | 4.0 | 0.00 | 0.00 | 0.00 | 87 | 1010.7 |
| 20260502060115 | 74 | 190 | 1.0 | 5.0 | 0.00 | 0.00 | 0.00 | 86 | 1010.8 |
| 20260502054526 | 74 | 164 | 0.0 | 8.0 | 0.00 | 0.00 | 0.00 | 86 | 1011.1 |
| 20260502053035 | 75 | 214 | 2.0 | 8.0 | 0.00 | 0.00 | 0.00 | 86 | 1011.1 |
| 20260502051630 | 75 | 130 | 0.0 | 5.0 | 0.00 | 0.00 | 0.00 | 86 | 1011.3 |
| 20260502050011 | 75 | 237 | 0.0 | 4.0 | 0.00 | 0.00 | 0.00 | 86 | 1011.4 |
| 20260502044532 | 75 | 181 | 0.0 | 4.0 | 0.00 | 0.00 | 0.00 | 85 | 1011.4 |
| 20260502043044 | 76 | 192 | 0.0 | 4.0 | 0.00 | 0.00 | 0.00 | 85 | 1011.3 |
| 20260502041604 | 76 | 136 | 1.0 | 4.0 | 0.00 | 0.00 | 0.00 | 84 | 1011.4 |
| 20260502040015 | 76 | 193 | 0.0 | 7.0 | 0.00 | 0.00 | 0.00 | 83 | 1011.3 |
| 20260502034538 | 77 | 218 | 0.0 | 6.0 | 0.00 | 0.00 | 0.00 | 82 | 1011.4 |
| 20260502033108 | 77 | 221 | 1.0 | 6.0 | 0.00 | 0.00 | 0.00 | 81 | 1011.4 |
| 20260502031514 | 77 | 176 | 4.0 | 9.0 | 0.00 | 0.00 | 0.00 | 81 | 1011.3 |
| 20260502030038 | 77 | 150 | 1.0 | 8.0 | 0.00 | 0.00 | 0.00 | 81 | 1011.4 |
| 20260502024555 | 77 | 207 | 3.0 | 9.0 | 0.00 | 0.00 | 0.00 | 81 | 1011.4 |
| 20260502023020 | 78 | 141 | 2.0 | 8.0 | 0.00 | 0.00 | 0.00 | 80 | 1011.2 |
| 20260502021541 | 78 | 143 | 2.0 | 9.0 | 0.00 | 0.00 | 0.00 | 80 | 1011.0 |
| 20260502020106 | 78 | 145 | 2.0 | 7.0 | 0.00 | 0.00 | 0.00 | 80 | 1010.9 |
| 20260502014621 | 79 | 115 | 2.0 | 9.0 | 0.00 | 0.00 | 0.00 | 80 | 1010.8 |
| 20260502013045 | 79 | 141 | 1.0 | 7.0 | 0.00 | 0.00 | 0.00 | 83 | 1010.6 |
| 20260502011554 | 79 | 129 | 5.0 | 11.0 | 0.00 | 0.00 | 0.00 | 83 | 1010.5 |
| 20260502010001 | 79 | 125 | 7.0 | 11.0 | 0.00 | 0.00 | 0.00 | 82 | 1010.3 |
| 20260502004520 | 79 | 107 | 8.0 | 12.0 | 0.00 | 0.00 | 0.00 | 81 | 1010.1 |
| 20260502003037 | 80 | 111 | 4.0 | 9.0 | 0.00 | 0.00 | 0.00 | 81 | 1009.9 |
| 20260502001612 | 80 | 117 | 5.0 | 8.0 | 0.00 | 0.00 | 0.00 | 79 | 1009.5 |
| 20260502000017 | 80 | 177 | 4.0 | 8.0 | 0.00 | 0.00 | 0.00 | 79 | 1009.4 |
| 20260501234544 | 81 | 113 | 5.0 | 11.0 | 0.00 | 0.00 | 0.00 | 78 | 1009.3 |
| 20260501233106 | 81 | 128 | 8.0 | 13.0 | 0.00 | 0.00 | 0.00 | 76 | 1009.2 |
| 20260501231520 | 82 | 110 | 5.0 | 13.0 | 0.00 | 0.00 | 0.00 | 74 | 1009.1 |
| 20260501230043 | 82 | 124 | 7.0 | 13.0 | 0.00 | 0.00 | 0.00 | 73 | 1008.8 |
| 20260501224557 | 82 | 122 | 6.0 | 12.0 | 0.00 | 0.00 | 0.00 | 73 | 1009.0 |
| 20260501223112 | 83 | 113 | 5.0 | 12.0 | 0.00 | 0.00 | 0.00 | 71 | 1008.7 |
| 20260501221522 | 83 | 120 | 7.0 | 14.0 | 0.00 | 0.00 | 0.00 | 72 | 1008.7 |
| 20260501220109 | 83 | 112 | 7.0 | 15.0 | 0.00 | 0.00 | 0.00 | 72 | 1008.7 |
| 20260501214603 | 82 | 97 | 10.0 | 16.0 | 0.00 | 0.00 | 0.00 | 72 | 1008.9 |
| 20260501213014 | 82 | 88 | 11.0 | 17.0 | 0.00 | 0.00 | 0.00 | 75 | 1008.9 |
| 20260501211530 | 83 | 124 | 9.0 | 17.0 | 0.00 | 0.00 | 0.00 | 71 | 1009.0 |
| 20260501210104 | 83 | 101 | 9.0 | 15.0 | 0.00 | 0.00 | 0.00 | 71 | 1009.1 |
| 20260501204505 | 83 | 118 | 9.0 | 15.0 | 0.00 | 0.00 | 0.00 | 71 | 1009.4 |
| 20260501203035 | 82 | 88 | 9.0 | 16.0 | 0.00 | 0.00 | 0.00 | 73 | 1009.5 |
| 20260501201551 | 82 | 110 | 11.0 | 15.0 | 0.00 | 0.00 | 0.00 | 73 | 1009.7 |
| 20260501200110 | 82 | 121 | 10.0 | 16.0 | 0.00 | 0.00 | 0.00 | 73 | 1009.8 |
| 20260501194516 | 82 | 84 | 9.0 | 15.0 | 0.00 | 0.00 | 0.00 | 74 | 1010.1 |
| 20260501193025 | 83 | 90 | 10.0 | 15.0 | 0.00 | 0.00 | 0.00 | 72 | 1010.2 |
| 20260501191539 | 84 | 130 | 9.0 | 15.0 | 0.00 | 0.00 | 0.00 | 71 | 1010.4 |
| 20260501184508 | 89 | 179 | 1.0 | 9.0 | 0.00 | 0.00 | 0.00 | 59 | 1010.7 |
| 20260501183022 | 89 | 266 | 3.0 | 10.0 | 0.00 | 0.00 | 0.00 | 54 | 1010.9 |
| 20260501181557 | 88 | 131 | 1.0 | 6.0 | 0.00 | 0.00 | 0.00 | 53 | 1011.1 |